| time (UTC) | temp C | wind direction | speed KPH | gust KPH | rain 1hr cm | rain 24hr cm | rain mn cm | humidity % | barometer mb |
| 20260505034713 | 15 | 173 | 0.0 | 0.0 | 0.00 | 0.00 | 0.00 | 55 | 1003.3 |
| 20260505034206 | 15 | 173 | 0.0 | 0.0 | 0.00 | 0.00 | 0.00 | 54 | 1003.2 |
| 20260505033655 | 15 | 173 | 0.0 | 0.0 | 0.00 | 0.00 | 0.00 | 54 | 1003.2 |
| 20260505033144 | 15 | 173 | 0.0 | 0.0 | 0.00 | 0.00 | 0.00 | 55 | 1003.0 |
| 20260505032635 | 15 | 173 | 0.0 | 1.6 | 0.00 | 0.00 | 0.00 | 54 | 1003.0 |
| 20260505032116 | 15 | 173 | 0.0 | 4.8 | 0.00 | 0.00 | 0.00 | 54 | 1002.9 |
| 20260505031607 | 15 | 173 | 0.0 | 4.8 | 0.00 | 0.00 | 0.00 | 54 | 1002.8 |
| 20260505031102 | 15 | 173 | 0.0 | 4.8 | 0.00 | 0.00 | 0.00 | 53 | 1002.7 |
| 20260505030558 | 15 | 173 | 0.0 | 4.8 | 0.00 | 0.00 | 0.00 | 54 | 1002.7 |
| 20260505030109 | 16 | 173 | 0.0 | 1.6 | 0.00 | 0.00 | 0.00 | 55 | 1002.7 |
| 20260505025554 | 16 | 173 | 0.0 | 8.0 | 0.00 | 0.00 | 0.00 | 53 | 1002.6 |
| 20260505025040 | 16 | 173 | 0.0 | 8.0 | 0.00 | 0.00 | 0.00 | 53 | 1002.7 |
| 20260505024507 | 16 | 173 | 0.0 | 0.0 | 0.00 | 0.00 | 0.00 | 53 | 1002.7 |
| 20260505024007 | 16 | 173 | 0.0 | 0.0 | 0.00 | 0.00 | 0.00 | 54 | 1002.7 |
| 20260505023508 | 16 | 173 | 0.0 | 0.0 | 0.00 | 0.00 | 0.00 | 53 | 1002.6 |
| 20260505022951 | 17 | 173 | 0.0 | 0.0 | 0.00 | 0.00 | 0.00 | 52 | 1002.6 |
| 20260505022412 | 17 | 173 | 0.0 | 0.0 | 0.00 | 0.00 | 0.00 | 53 | 1002.5 |
| 20260505021912 | 17 | 173 | 0.0 | 0.0 | 0.00 | 0.00 | 0.00 | 52 | 1002.3 |
| 20260505021407 | 17 | 173 | 0.0 | 0.0 | 0.00 | 0.00 | 0.00 | 53 | 1002.2 |
| 20260505020907 | 17 | 173 | 0.0 | 0.0 | 0.00 | 0.00 | 0.00 | 51 | 1002.2 |
| 20260505020407 | 18 | 173 | 0.0 | 0.0 | 0.00 | 0.00 | 0.00 | 50 | 1002.1 |
| 20260505015849 | 18 | 173 | 0.0 | 0.0 | 0.00 | 0.00 | 0.00 | 52 | 1002.1 |
| 20260505014806 | 19 | 173 | 0.0 | 0.0 | 0.00 | 0.00 | 0.00 | 47 | 1002.1 |
| 20260505014308 | 20 | 173 | 0.0 | 4.8 | 0.00 | 0.00 | 0.00 | 43 | 1002.0 |
| 20260505013803 | 20 | 173 | 1.6 | 6.4 | 0.00 | 0.00 | 0.00 | 40 | 1002.0 |
| 20260505013217 | 20 | 173 | 3.2 | 9.7 | 0.00 | 0.00 | 0.00 | 42 | 1001.9 |
| 20260505012716 | 20 | 173 | 1.6 | 8.0 | 0.00 | 0.00 | 0.00 | 45 | 1002.0 |
| 20260505011139 | 21 | 173 | 3.2 | 9.7 | 0.00 | 0.00 | 0.00 | 37 | 1002.1 |
| 20260505010638 | 21 | 170 | 3.2 | 9.7 | 0.00 | 0.00 | 0.00 | 39 | 1002.1 |
| 20260505010138 | 21 | 170 | 1.6 | 8.0 | 0.00 | 0.00 | 0.00 | 41 | 1002.2 |
| 20260505005127 | 21 | 169 | 3.2 | 11.3 | 0.00 | 0.00 | 0.00 | 40 | 1002.2 |
| 20260505004626 | 21 | 169 | 6.4 | 14.5 | 0.00 | 0.00 | 0.00 | 41 | 1002.2 |
| 20260505004122 | 22 | 146 | 4.8 | 14.5 | 0.00 | 0.00 | 0.00 | 39 | 1002.2 |
| 20260505003620 | 22 | 185 | 3.2 | 11.3 | 0.00 | 0.00 | 0.00 | 39 | 1002.2 |
| 20260505003116 | 22 | 190 | 3.2 | 11.3 | 0.00 | 0.00 | 0.00 | 39 | 1002.1 |
| 20260505002618 | 22 | 176 | 4.8 | 12.9 | 0.00 | 0.00 | 0.00 | 39 | 1002.1 |
| 20260505002113 | 22 | 184 | 6.4 | 14.5 | 0.00 | 0.00 | 0.00 | 40 | 1002.3 |
| 20260505001110 | 22 | 194 | 4.8 | 11.3 | 0.00 | 0.00 | 0.00 | 40 | 1002.2 |
| 20260505000602 | 22 | 214 | 4.8 | 17.7 | 0.00 | 0.00 | 0.00 | 40 | 1002.3 |
| 20260505000103 | 22 | 193 | 4.8 | 17.7 | 0.00 | 0.00 | 0.00 | 38 | 1002.4 |
| 20260504235545 | 22 | 180 | 6.4 | 14.5 | 0.00 | 0.00 | 0.00 | 41 | 1002.4 |
| 20260504235039 | 22 | 188 | 6.4 | 14.5 | 0.00 | 0.00 | 0.00 | 40 | 1002.4 |
| 20260504234527 | 22 | 219 | 6.4 | 11.3 | 0.00 | 0.00 | 0.00 | 41 | 1002.4 |
| 20260504234026 | 22 | 206 | 6.4 | 11.3 | 0.00 | 0.00 | 0.00 | 39 | 1002.5 |
| 20260504233520 | 22 | 171 | 4.8 | 17.7 | 0.00 | 0.00 | 0.00 | 39 | 1002.4 |
| 20260504233020 | 22 | 197 | 4.8 | 17.7 | 0.00 | 0.00 | 0.00 | 38 | 1002.4 |
| 20260504232520 | 22 | 196 | 6.4 | 16.1 | 0.00 | 0.00 | 0.00 | 37 | 1002.4 |
| 20260504232021 | 22 | 201 | 6.4 | 19.3 | 0.00 | 0.00 | 0.00 | 39 | 1002.4 |
| 20260504231518 | 22 | 186 | 4.8 | 19.3 | 0.00 | 0.00 | 0.00 | 36 | 1002.4 |
| 20260504230516 | 22 | 164 | 4.8 | 12.9 | 0.00 | 0.00 | 0.00 | 39 | 1002.5 |
| 20260504230016 | 22 | 167 | 4.8 | 17.7 | 0.00 | 0.00 | 0.00 | 39 | 1002.3 |
| 20260504225504 | 22 | 178 | 4.8 | 17.7 | 0.00 | 0.00 | 0.00 | 41 | 1002.4 |
| 20260504225004 | 22 | 200 | 1.6 | 8.0 | 0.00 | 0.00 | 0.00 | 40 | 1002.4 |
| 20260504223507 | 22 | 276 | 1.6 | 9.7 | 0.00 | 0.00 | 0.00 | 40 | 1002.5 |
| 20260504223002 | 22 | 198 | 3.2 | 11.3 | 0.00 | 0.00 | 0.00 | 40 | 1002.7 |
| 20260504222002 | 22 | 169 | 3.2 | 11.3 | 0.00 | 0.00 | 0.00 | 40 | 1002.8 |
| 20260504221502 | 22 | 266 | 1.6 | 11.3 | 0.00 | 0.00 | 0.00 | 39 | 1002.9 |
| 20260504220959 | 22 | 261 | 1.6 | 11.3 | 0.00 | 0.00 | 0.00 | 40 | 1002.9 |
| 20260504220458 | 22 | 248 | 3.2 | 11.3 | 0.00 | 0.00 | 0.00 | 38 | 1003.0 |
| 20260504215959 | 22 | 205 | 3.2 | 11.3 | 0.00 | 0.00 | 0.00 | 38 | 1003.1 |
| 20260504215458 | 22 | 194 | 1.6 | 14.5 | 0.00 | 0.00 | 0.00 | 39 | 1003.0 |
| 20260504214957 | 22 | 275 | 1.6 | 16.1 | 0.00 | 0.00 | 0.00 | 41 | 1003.0 |
| 20260504214457 | 22 | 250 | 3.2 | 16.1 | 0.00 | 0.00 | 0.00 | 40 | 1003.0 |
| 20260504213956 | 22 | 285 | 4.8 | 16.1 | 0.00 | 0.00 | 0.00 | 40 | 1003.0 |
| 20260504213456 | 22 | 244 | 3.2 | 16.1 | 0.00 | 0.00 | 0.00 | 41 | 1002.9 |
| 20260504211937 | 22 | 314 | 3.2 | 14.5 | 0.00 | 0.00 | 0.00 | 40 | 1003.0 |
| 20260504211431 | 22 | 290 | 3.2 | 9.7 | 0.00 | 0.00 | 0.00 | 40 | 1003.0 |
| 20260504210931 | 21 | 189 | 4.8 | 12.9 | 0.00 | 0.00 | 0.00 | 42 | 1003.0 |
| 20260504210430 | 21 | 193 | 3.2 | 12.9 | 0.00 | 0.00 | 0.00 | 42 | 1003.1 |
| 20260504205930 | 22 | 210 | 1.6 | 12.9 | 0.00 | 0.00 | 0.00 | 44 | 1003.0 |
| 20260504205429 | 21 | 207 | 1.6 | 12.9 | 0.00 | 0.00 | 0.00 | 46 | 1003.1 |
| 20260504204406 | 21 | 266 | 1.6 | 8.0 | 0.00 | 0.00 | 0.00 | 47 | 1003.3 |
| 20260504203908 | 21 | 212 | 3.2 | 9.7 | 0.00 | 0.00 | 0.00 | 49 | 1003.4 |
| 20260504203402 | 21 | 252 | 3.2 | 11.3 | 0.00 | 0.00 | 0.00 | 48 | 1003.3 |
| 20260504202337 | 21 | 226 | 3.2 | 9.7 | 0.00 | 0.00 | 0.00 | 47 | 1003.6 |
| 20260504201325 | 21 | 212 | 3.2 | 9.7 | 0.00 | 0.00 | 0.00 | 45 | 1003.6 |
| 20260504200316 | 21 | 244 | 1.6 | 9.7 | 0.00 | 0.00 | 0.00 | 44 | 1003.5 |
| 20260504195815 | 21 | 244 | 1.6 | 9.7 | 0.00 | 0.00 | 0.00 | 43 | 1003.4 |
| 20260504195313 | 21 | 292 | 1.6 | 6.4 | 0.00 | 0.00 | 0.00 | 45 | 1003.4 |
| 20260504194315 | 21 | 17 | 1.6 | 9.7 | 0.00 | 0.00 | 0.00 | 44 | 1003.5 |
| 20260504193801 | 20 | 349 | 3.2 | 9.7 | 0.00 | 0.00 | 0.00 | 45 | 1003.5 |
| 20260504192742 | 21 | 210 | 1.6 | 9.7 | 0.00 | 0.00 | 0.00 | 46 | 1003.5 |
| 20260504192242 | 21 | 200 | 3.2 | 11.3 | 0.00 | 0.00 | 0.00 | 47 | 1003.6 |
| 20260504191742 | 20 | 253 | 3.2 | 11.3 | 0.00 | 0.00 | 0.00 | 45 | 1003.7 |
| 20260504191238 | 20 | 261 | 1.6 | 9.7 | 0.00 | 0.00 | 0.00 | 46 | 1003.8 |
| 20260504190738 | 20 | 273 | 1.6 | 9.7 | 0.00 | 0.00 | 0.00 | 48 | 1003.9 |
| 20260504190238 | 20 | 272 | 1.6 | 9.7 | 0.00 | 0.00 | 0.00 | 45 | 1003.8 |
| 20260504185723 | 20 | 232 | 1.6 | 9.7 | 0.00 | 0.00 | 0.00 | 48 | 1003.8 |
| 20260504185204 | 20 | 213 | 3.2 | 9.7 | 0.00 | 0.00 | 0.00 | 48 | 1003.6 |
| 20260504184659 | 20 | 186 | 4.8 | 12.9 | 0.00 | 0.00 | 0.00 | 49 | 1003.6 |
| 20260504183658 | 20 | 188 | 1.6 | 9.7 | 0.00 | 0.00 | 0.00 | 47 | 1003.5 |
| 20260504183151 | 20 | 185 | 1.6 | 6.4 | 0.00 | 0.00 | 0.00 | 50 | 1003.7 |
| 20260504182632 | 19 | 184 | 3.2 | 11.3 | 0.00 | 0.00 | 0.00 | 48 | 1003.7 |
| 20260504182125 | 19 | 184 | 1.6 | 11.3 | 0.00 | 0.00 | 0.00 | 50 | 1003.7 |
| 20260504181610 | 18 | 199 | 3.2 | 9.7 | 0.00 | 0.00 | 0.00 | 53 | 1003.7 |
| 20260504181108 | 18 | 197 | 3.2 | 14.5 | 0.00 | 0.00 | 0.00 | 51 | 1003.7 |
| 20260504180600 | 18 | 197 | 4.8 | 14.5 | 0.00 | 0.00 | 0.00 | 52 | 1003.7 |
| 20260504180100 | 18 | 208 | 4.8 | 11.3 | 0.00 | 0.00 | 0.00 | 49 | 1003.6 |
| 20260504175559 | 18 | 209 | 4.8 | 11.3 | 0.00 | 0.00 | 0.00 | 52 | 1003.8 |
| 20260504175058 | 18 | 211 | 4.8 | 11.3 | 0.00 | 0.00 | 0.00 | 52 | 1003.9 |
| 20260504174551 | 18 | 207 | 4.8 | 11.3 | 0.00 | 0.00 | 0.00 | 54 | 1003.8 |
| 20260504174043 | 17 | 190 | 3.2 | 9.7 | 0.00 | 0.00 | 0.00 | 55 | 1004.0 |
| 20260504173534 | 17 | 182 | 3.2 | 9.7 | 0.00 | 0.00 | 0.00 | 55 | 1003.9 |
| 20260504173029 | 17 | 181 | 3.2 | 11.3 | 0.00 | 0.00 | 0.00 | 52 | 1003.9 |
| 20260504172520 | 17 | 181 | 4.8 | 11.3 | 0.00 | 0.00 | 0.00 | 55 | 1003.9 |
| 20260504172009 | 17 | 173 | 4.8 | 11.3 | 0.00 | 0.00 | 0.00 | 53 | 1003.9 |
| 20260504171002 | 16 | 169 | 4.8 | 11.3 | 0.00 | 0.00 | 0.00 | 53 | 1003.7 |
| 20260504170442 | 16 | 178 | 3.2 | 11.3 | 0.00 | 0.00 | 0.00 | 54 | 1003.8 |
| 20260504150806 | 14 | 143 | 0.0 | 4.8 | 0.00 | 0.00 | 0.00 | 55 | 1003.6 |
| 20260504150305 | 14 | 143 | 1.6 | 8.0 | 0.00 | 0.00 | 0.00 | 54 | 1003.7 |
| 20260504140115 | 12 | 167 | 0.0 | 0.0 | 0.00 | 0.00 | 0.00 | 59 | 1003.5 |
| 20260504130434 | 12 | 222 | 0.0 | 0.0 | 0.00 | 0.00 | 0.00 | 54 | 1003.3 |
| 20260504120207 | 14 | 254 | 0.0 | 0.0 | 0.00 | 0.00 | 0.00 | 48 | 1003.5 |
| 20260504110508 | 13 | 254 | 0.0 | 0.0 | 0.00 | 0.00 | 0.00 | 47 | 1003.8 |
| 20260504090137 | 15 | 254 | 0.0 | 0.0 | 0.00 | 0.00 | 0.00 | 40 | 1003.8 |
| 20260504081511 | 16 | 254 | 0.0 | 0.0 | 0.00 | 0.00 | 0.00 | 39 | 1004.1 |
| 20260504081011 | 16 | 254 | 0.0 | 0.0 | 0.00 | 0.00 | 0.00 | 39 | 1004.2 |
| 20260504080431 | 16 | 254 | 0.0 | 0.0 | 0.00 | 0.00 | 0.00 | 40 | 1004.2 |
| 20260504070208 | 16 | 254 | 0.0 | 0.0 | 0.00 | 0.00 | 0.00 | 41 | 1004.5 |
| 20260504050350 | 16 | 254 | 0.0 | 0.0 | 0.00 | 0.00 | 0.00 | 38 | 1004.9 |
| 20260504045824 | 16 | 254 | 0.0 | 0.0 | 0.00 | 0.00 | 0.00 | 39 | 1004.8 |
| 20260504045323 | 16 | 254 | 0.0 | 0.0 | 0.00 | 0.00 | 0.00 | 38 | 1004.9 |
| 20260504044819 | 16 | 254 | 0.0 | 0.0 | 0.00 | 0.00 | 0.00 | 39 | 1004.9 |
| 20260504044312 | 16 | 254 | 0.0 | 0.0 | 0.00 | 0.00 | 0.00 | 39 | 1004.9 |
| 20260504043809 | 16 | 254 | 0.0 | 0.0 | 0.00 | 0.00 | 0.00 | 39 | 1005.0 |
| 20260504043310 | 16 | 254 | 0.0 | 0.0 | 0.00 | 0.00 | 0.00 | 38 | 1004.8 |
| 20260504042257 | 16 | 254 | 0.0 | 0.0 | 0.00 | 0.00 | 0.00 | 38 | 1004.9 |
| 20260504041756 | 16 | 254 | 0.0 | 0.0 | 0.00 | 0.00 | 0.00 | 38 | 1004.9 |
| 20260504041241 | 16 | 254 | 0.0 | 0.0 | 0.00 | 0.00 | 0.00 | 39 | 1004.9 |
| 20260504040731 | 16 | 254 | 0.0 | 0.0 | 0.00 | 0.00 | 0.00 | 38 | 1004.8 |
| 20260504040232 | 16 | 254 | 0.0 | 0.0 | 0.00 | 0.00 | 0.00 | 38 | 1004.9 |